COSMOS 2251 DEB, 33816

Orbit data source: Space-Track

COSMOS 2251 DEB, 33816 is space debris in LEO originally from a launch on Wed, 16 Jun 1993 UTC launched from the Plesetsk Missile And Space Complex (PKMTR). The debris from Iridium 33, an American commercial communications satellite, has been tracked extensively since its accidental collision with the defunct Russian satellite Cosmos 2251 in 2009. This event, occurring at high speed in low Earth orbit (LEO), generated thousands of pieces of space debris, significantly increasing the risk of further collisions. The Iridium 33 debris cloud has impacted space traffic management and orbital debris mitigation strategies, making it a subject of ongoing study in space situational awareness.

Loading next visibility...
Identifier
33816, 1993-036BH
Orbit
LEO
Country
Flag of CISCIS
Related business
Manufacturer
Unknown
Mission
Spacecraft
Bus & Motor
Unknown
Mass
Unknown
Launch date (UTC)
1993-06-16 (33 years ago)
Launch vehicle
Unknown
Launch site
Plesetsk Missile And Space Complex (PKMTR)
Object type
Payload
Rocket body
Debris
Shape & HBR
Unknown shape, 0.2 m
Radar Cross Section
Small (<0.1 m²)

Expand to show TLE details & history
Last TLE update: 20 hours ago

TLE from 20 hours ago
0 COSMOS 2251 DEB
1 33816U 93036BH  26037.32170719  .00001658  00000-0  12007-2 0  9992
2 33816  73.8960  11.1796 0264824  13.1928 347.5943 13.81879294854410
Epoch: 2026-02-06T07:43Z
TLE epoch observation values (Epoch: 2026-02-06T07:43:15.501Z)
Latitude
-0.00007°
Longitude
118.90374°
Altitude
770.261 km
Speed
7.565 km/s
True Right ascension
00h 44m 43s
True Declination
0° 00' 00"
Sunlit
Object was in daylight at epoch
Visualization orbit readout
Latitude
Unknown
Longitude
Unknown
Altitude
Unknown
Speed
Unknown
Apparent Right ascension
Unknown
Apparent Declination
Unknown
Sunlit
N/A
Visualization observer readout
Local Sidereal Time
05:57:34
Azimuth
Unknown
Elevation
Unknown
Doppler factor
Unknown
Orbital elements
Apogee altitude
1,149.119 km
Perigee altitude
760.725 km
Semi-major axis
7,333.059 km
Eccentricity
0.02648
Inclination
73.896°
RAAN
11.1796°
Arg. of periapsis
13.1928°
True anomaly
346.92062°
Mean anomaly
347.5943°
Eccentric anomaly
347.25968°
Mean motion
3.45633 °/min
Orbital period
104.16 mins
BSTAR
0.0012007
Loading maneuver chart data...
Computing Atmospheric mass density...

Documentation

Showing up to 5 results
|